Time,TemperatureF,DewpointF,PressureIn,WindDirection,WindDirectionDegrees,WindSpeedMPH,WindSpeedGustMPH,Humidity,HourlyPrecipIn,Conditions,Clouds,dailyrainin,SoftwareType,DateUTC
2013-01-04 00:00:00,24.6,17.5,30.00,SW,225,0.0,0.0,74,0.00,,---,0.00,VWS V14.01,2013-01-04 05:00:00,
2013-01-04 00:01:00,24.6,17.5,30.00,SW,225,0.0,0.0,74,0.00,,---,0.00,VWS V14.01,2013-01-04 05:01:00,
2013-01-04 00:03:00,24.6,17.5,30.00,SW,225,0.0,0.0,74,0.00,,---,0.00,VWS V14.01,2013-01-04 05:03:00,
2013-01-04 00:08:00,24.6,17.5,30.00,SW,225,0.0,0.0,74,0.00,,---,0.00,VWS V14.01,2013-01-04 05:08:00,
2013-01-04 00:13:00,24.8,17.7,30.00,SW,225,0.0,0.0,74,0.00,,---,0.00,VWS V14.01,2013-01-04 05:13:00,
2013-01-04 00:18:00,24.8,18.0,30.00,SW,225,0.0,0.0,75,0.00,,---,0.00,VWS V14.01,2013-01-04 05:18:00,
2013-01-04 00:23:00,24.8,18.0,29.97,SW,225,0.0,0.0,75,0.00,,---,0.00,VWS V14.01,2013-01-04 05:23:00,
2013-01-04 00:28:00,24.8,18.0,29.97,SW,225,0.0,0.0,75,0.00,,---,0.00,VWS V14.01,2013-01-04 05:28:00,
2013-01-04 00:33:00,25.0,18.2,29.97,SW,225,0.0,0.0,75,0.00,,---,0.00,VWS V14.01,2013-01-04 05:33:00,
2013-01-04 00:38:00,25.0,18.2,30.00,SW,225,0.0,0.0,75,0.00,,---,0.00,VWS V14.01,2013-01-04 05:38:00,
2013-01-04 00:43:00,25.0,18.5,30.00,SW,225,0.0,0.0,76,0.00,,---,0.00,VWS V14.01,2013-01-04 05:43:00,
2013-01-04 00:48:00,24.8,18.3,30.00,SW,225,0.0,0.0,76,0.00,,---,0.00,VWS V14.01,2013-01-04 05:48:00,
2013-01-04 00:53:00,24.6,18.1,30.03,SW,225,0.0,0.0,76,0.00,,---,0.00,VWS V14.01,2013-01-04 05:53:00,
2013-01-04 00:58:00,24.4,18.0,30.03,SW,225,0.0,0.0,76,0.00,,---,0.00,VWS V14.01,2013-01-04 05:58:00,
2013-01-04 01:03:00,24.4,18.0,30.03,SW,225,0.0,0.0,76,0.00,,---,0.00,VWS V14.01,2013-01-04 06:03:00,
2013-01-04 01:08:00,24.3,17.8,30.00,SW,225,0.0,0.0,76,0.00,,---,0.00,VWS V14.01,2013-01-04 06:08:00,
2013-01-04 01:13:00,24.4,18.6,30.00,SW,225,0.0,0.0,78,0.00,,---,0.00,VWS V14.01,2013-01-04 06:13:00,
2013-01-04 01:18:00,24.4,18.6,30.00,SW,225,0.0,0.0,78,0.00,,---,0.00,VWS V14.01,2013-01-04 06:18:00,
2013-01-04 01:23:00,24.6,19.0,30.00,SW,225,0.0,0.0,79,0.00,,---,0.00,VWS V14.01,2013-01-04 06:23:00,
2013-01-04 01:28:00,24.8,19.5,30.00,SW,225,0.0,0.0,80,0.00,,---,0.00,VWS V14.01,2013-01-04 06:28:00,
2013-01-04 01:33:00,24.8,19.5,30.00,SW,225,0.0,0.0,80,0.00,,---,0.00,VWS V14.01,2013-01-04 06:33:00,
2013-01-04 01:38:00,25.0,19.7,29.97,SW,225,0.0,0.0,80,0.00,,---,0.00,VWS V14.01,2013-01-04 06:38:00,
2013-01-04 01:43:00,25.0,19.7,29.97,SW,225,0.0,0.0,80,0.00,,---,0.00,VWS V14.01,2013-01-04 06:43:00,
2013-01-04 01:48:00,25.2,19.9,29.97,SW,225,0.0,0.0,80,0.00,,---,0.00,VWS V14.01,2013-01-04 06:48:00,
2013-01-04 01:53:00,25.2,19.9,29.97,SW,225,0.0,0.0,80,0.00,,---,0.00,VWS V14.01,2013-01-04 06:53:00,
2013-01-04 01:58:00,25.3,19.8,29.97,SW,225,0.0,0.0,79,0.00,,---,0.00,VWS V14.01,2013-01-04 06:58:00,
2013-01-04 02:03:00,25.3,19.5,29.97,SW,225,0.0,0.0,78,0.00,,---,0.00,VWS V14.01,2013-01-04 07:03:00,
2013-01-04 02:08:00,25.3,19.1,29.97,SW,225,0.0,0.0,77,0.00,,---,0.00,VWS V14.01,2013-01-04 07:08:00,
2013-01-04 02:12:00,25.3,18.9,29.97,SW,225,0.0,0.0,76,0.00,,---,0.00,VWS V14.01,2013-01-04 07:12:00,
2013-01-04 02:17:00,25.5,18.7,29.97,SW,225,0.0,0.0,75,0.00,,---,0.00,VWS V14.01,2013-01-04 07:17:00,
2013-01-04 02:22:00,25.5,18.7,29.97,SW,225,0.0,0.0,75,0.00,,---,0.00,VWS V14.01,2013-01-04 07:22:00,
2013-01-04 02:27:00,25.5,18.7,29.97,SW,225,0.0,0.0,75,0.00,,---,0.00,VWS V14.01,2013-01-04 07:27:00,
2013-01-04 02:32:00,25.5,18.7,29.97,SW,225,0.0,0.0,75,0.00,,---,0.00,VWS V14.01,2013-01-04 07:32:00,
2013-01-04 02:37:00,25.5,18.7,29.97,SW,225,0.0,0.0,75,0.00,,---,0.00,VWS V14.01,2013-01-04 07:37:00,
2013-01-04 02:42:00,25.7,19.2,29.97,SW,225,0.0,0.0,76,0.00,,---,0.00,VWS V14.01,2013-01-04 07:42:00,
2013-01-04 02:47:00,25.7,19.2,29.97,SW,225,0.0,0.0,76,0.00,,---,0.00,VWS V14.01,2013-01-04 07:47:00,
2013-01-04 02:52:00,25.7,19.2,29.97,SW,225,0.0,0.0,76,0.00,,---,0.00,VWS V14.01,2013-01-04 07:52:00,
2013-01-04 02:57:00,25.7,19.2,29.97,SW,225,0.0,0.0,76,0.00,,---,0.00,VWS V14.01,2013-01-04 07:57:00,
2013-01-04 03:02:00,25.9,19.4,29.97,SW,225,0.0,0.0,76,0.00,,---,0.00,VWS V14.01,2013-01-04 08:02:00,
2013-01-04 03:07:00,25.9,19.1,29.97,SW,225,0.0,0.0,75,0.00,,---,0.00,VWS V14.01,2013-01-04 08:07:00,
2013-01-04 03:12:00,25.9,19.1,29.97,SW,225,0.0,0.0,75,0.00,,---,0.00,VWS V14.01,2013-01-04 08:12:00,
2013-01-04 03:17:00,25.9,18.8,29.97,SW,225,0.0,0.0,74,0.00,,---,0.00,VWS V14.01,2013-01-04 08:17:00,
2013-01-04 03:22:00,25.9,18.8,29.97,SW,225,0.0,0.0,74,0.00,,---,0.00,VWS V14.01,2013-01-04 08:22:00,
2013-01-04 03:27:00,25.9,18.4,29.97,SW,225,0.0,0.0,73,0.00,,---,0.00,VWS V14.01,2013-01-04 08:27:00,
2013-01-04 03:32:00,25.9,18.1,29.97,SW,225,0.0,0.0,72,0.00,,---,0.00,VWS V14.01,2013-01-04 08:32:00,
2013-01-04 03:37:00,25.9,17.8,29.94,SW,225,0.0,0.0,71,0.00,,---,0.00,VWS V14.01,2013-01-04 08:37:00,
2013-01-04 03:42:00,25.9,17.8,29.94,SW,225,0.0,0.0,71,0.00,,---,0.00,VWS V14.01,2013-01-04 08:42:00,
2013-01-04 03:47:00,25.9,18.1,29.94,SW,225,0.0,0.0,72,0.00,,---,0.00,VWS V14.01,2013-01-04 08:47:00,
2013-01-04 03:52:00,25.9,18.1,29.94,SW,225,0.0,0.0,72,0.00,,---,0.00,VWS V14.01,2013-01-04 08:52:00,
2013-01-04 03:57:00,25.9,18.1,29.94,SW,225,0.0,0.0,72,0.00,,---,0.00,VWS V14.01,2013-01-04 08:57:00,
2013-01-04 04:02:00,25.7,17.6,29.94,SW,225,0.0,0.0,71,0.00,,---,0.00,VWS V14.01,2013-01-04 09:02:00,
2013-01-04 04:07:00,25.7,17.9,29.91,SW,225,0.0,0.0,72,0.00,,---,0.00,VWS V14.01,2013-01-04 09:07:00,
2013-01-04 04:12:00,25.7,17.9,29.91,SW,225,0.0,0.0,72,0.00,,---,0.00,VWS V14.01,2013-01-04 09:12:00,
2013-01-04 04:17:00,25.9,18.1,29.91,SW,225,0.0,0.0,72,0.00,,---,0.00,VWS V14.01,2013-01-04 09:17:00,
2013-01-04 04:22:00,25.9,18.4,29.94,SW,225,0.0,0.0,73,0.00,,---,0.00,VWS V14.01,2013-01-04 09:22:00,
2013-01-04 04:27:00,25.9,18.4,29.94,SW,225,0.0,0.0,73,0.00,,---,0.00,VWS V14.01,2013-01-04 09:27:00,
2013-01-04 04:32:00,25.9,18.4,29.94,SW,225,0.0,0.0,73,0.00,,---,0.00,VWS V14.01,2013-01-04 09:32:00,
2013-01-04 04:37:00,25.7,18.3,29.94,SW,225,0.0,0.0,73,0.00,,---,0.00,VWS V14.01,2013-01-04 09:37:00,
2013-01-04 04:42:00,25.7,17.6,29.94,SW,225,0.0,0.0,71,0.00,,---,0.00,VWS V14.01,2013-01-04 09:42:00,
2013-01-04 04:47:00,25.7,17.3,29.94,SW,225,0.0,0.0,70,0.00,,---,0.00,VWS V14.01,2013-01-04 09:47:00,
2013-01-04 04:52:00,25.7,17.3,29.91,SW,225,0.0,0.0,70,0.00,,---,0.00,VWS V14.01,2013-01-04 09:52:00,
2013-01-04 04:57:00,25.5,17.4,29.91,SW,225,0.0,0.0,71,0.00,,---,0.00,VWS V14.01,2013-01-04 09:57:00,
2013-01-04 05:02:00,25.5,17.4,29.91,SW,225,0.0,0.0,71,0.00,,---,0.00,VWS V14.01,2013-01-04 10:02:00,
2013-01-04 05:07:00,25.5,17.4,29.91,SW,225,0.0,0.0,71,0.00,,---,0.00,VWS V14.01,2013-01-04 10:07:00,
2013-01-04 05:12:00,25.3,17.3,29.91,SW,225,0.0,0.0,71,0.00,,---,0.00,VWS V14.01,2013-01-04 10:12:00,
2013-01-04 05:17:00,25.3,17.3,29.91,SW,225,0.0,0.0,71,0.00,,---,0.00,VWS V14.01,2013-01-04 10:17:00,
2013-01-04 05:22:00,25.3,16.9,29.94,SW,225,0.0,0.0,70,0.00,,---,0.00,VWS V14.01,2013-01-04 10:22:00,
2013-01-04 05:27:00,25.3,16.9,29.94,SW,225,0.0,0.0,70,0.00,,---,0.00,VWS V14.01,2013-01-04 10:27:00,
2013-01-04 05:32:00,25.2,16.8,29.94,SW,225,0.0,0.0,70,0.00,,---,0.00,VWS V14.01,2013-01-04 10:32:00,
2013-01-04 05:37:00,25.2,16.8,29.94,SW,225,0.0,0.0,70,0.00,,---,0.00,VWS V14.01,2013-01-04 10:37:00,
2013-01-04 05:42:00,25.2,16.8,29.94,SW,225,0.0,0.0,70,0.00,,---,0.00,VWS V14.01,2013-01-04 10:42:00,
2013-01-04 05:47:00,25.0,16.6,29.94,SW,225,0.0,0.0,70,0.00,,---,0.00,VWS V14.01,2013-01-04 10:47:00,
2013-01-04 05:52:00,25.0,16.6,29.94,SW,225,0.0,0.0,70,0.00,,---,0.00,VWS V14.01,2013-01-04 10:52:00,
2013-01-04 05:57:00,25.0,16.6,29.94,SW,225,0.0,0.0,70,0.00,,---,0.00,VWS V14.01,2013-01-04 10:57:00,
2013-01-04 06:02:00,25.0,16.6,29.94,SW,225,0.0,0.0,70,0.00,,---,0.00,VWS V14.01,2013-01-04 11:02:00,
2013-01-04 06:07:00,25.0,16.6,29.94,SW,225,0.0,0.0,70,0.00,,---,0.00,VWS V14.01,2013-01-04 11:07:00,
2013-01-04 06:12:00,24.8,16.1,29.94,SW,225,0.0,0.0,69,0.00,,---,0.00,VWS V14.01,2013-01-04 11:12:00,
2013-01-04 06:17:00,24.8,15.8,29.94,SW,225,0.0,0.0,68,0.00,,---,0.00,VWS V14.01,2013-01-04 11:17:00,
2013-01-04 06:22:00,24.6,15.6,29.94,SW,225,0.0,0.0,68,0.00,,---,0.00,VWS V14.01,2013-01-04 11:22:00,
2013-01-04 06:27:00,24.4,15.4,29.94,SW,225,0.0,0.0,68,0.00,,---,0.00,VWS V14.01,2013-01-04 11:27:00,
2013-01-04 06:32:00,24.3,15.6,29.94,SW,225,0.0,0.0,69,0.00,,---,0.00,VWS V14.01,2013-01-04 11:32:00,
2013-01-04 06:37:00,24.1,15.4,29.94,SW,225,0.0,0.0,69,0.00,,---,0.00,VWS V14.01,2013-01-04 11:37:00,
2013-01-04 06:42:00,24.1,15.4,29.94,SW,225,0.0,0.0,69,0.00,,---,0.00,VWS V14.01,2013-01-04 11:42:00,
2013-01-04 06:47:00,23.9,15.6,29.94,SW,225,0.0,0.0,70,0.00,,---,0.00,VWS V14.01,2013-01-04 11:47:00,
2013-01-04 06:52:00,23.9,15.6,29.91,SW,225,0.0,0.0,70,0.00,,---,0.00,VWS V14.01,2013-01-04 11:52:00,
2013-01-04 06:57:00,23.9,15.9,29.91,SW,225,0.0,0.0,71,0.00,,---,0.00,VWS V14.01,2013-01-04 11:57:00,
2013-01-04 07:02:00,23.9,15.9,29.91,SW,225,0.0,0.0,71,0.00,,---,0.00,VWS V14.01,2013-01-04 12:02:00,
2013-01-04 07:07:00,24.1,16.4,29.94,SW,225,0.0,0.0,72,0.00,,---,0.00,VWS V14.01,2013-01-04 12:07:00,
2013-01-04 07:12:00,24.1,16.4,29.94,SW,225,0.0,0.0,72,0.00,,---,0.00,VWS V14.01,2013-01-04 12:12:00,
2013-01-04 07:17:00,24.1,16.0,29.94,SW,225,0.0,0.0,71,0.00,,---,0.00,VWS V14.01,2013-01-04 12:17:00,
2013-01-04 07:22:00,23.9,15.9,29.94,SW,225,0.0,0.0,71,0.00,,---,0.00,VWS V14.01,2013-01-04 12:22:00,
2013-01-04 07:27:00,23.9,15.9,29.94,SW,225,0.0,0.0,71,0.00,,---,0.00,VWS V14.01,2013-01-04 12:27:00,
2013-01-04 07:32:00,23.7,15.4,29.94,SW,225,0.0,0.0,70,0.00,,---,0.00,VWS V14.01,2013-01-04 12:32:00,
2013-01-04 07:37:00,23.5,15.2,29.94,SW,225,0.0,0.0,70,0.00,,---,0.00,VWS V14.01,2013-01-04 12:37:00,
2013-01-04 07:42:00,23.5,15.2,29.94,SW,225,0.0,0.0,70,0.00,,---,0.00,VWS V14.01,2013-01-04 12:42:00,
2013-01-04 07:47:00,23.4,15.0,29.94,SW,225,0.0,0.0,70,0.00,,---,0.00,VWS V14.01,2013-01-04 12:47:00,
2013-01-04 07:52:00,23.4,15.4,29.91,SW,225,0.0,0.0,71,0.00,,---,0.00,VWS V14.01,2013-01-04 12:52:00,
2013-01-04 07:57:00,23.2,15.2,29.91,SW,225,0.0,0.0,71,0.00,,---,0.00,VWS V14.01,2013-01-04 12:57:00,
2013-01-04 08:02:00,23.0,15.0,29.91,SW,225,0.0,0.0,71,0.00,,---,0.00,VWS V14.01,2013-01-04 13:02:00,
2013-01-04 08:07:00,23.0,15.0,29.94,SW,225,0.0,0.0,71,0.00,,---,0.00,VWS V14.01,2013-01-04 13:07:00,
2013-01-04 08:12:00,22.8,14.8,29.94,SW,225,0.0,0.0,71,0.00,,---,0.00,VWS V14.01,2013-01-04 13:12:00,
2013-01-04 08:17:00,22.8,14.8,29.94,SW,225,0.0,0.0,71,0.00,,---,0.00,VWS V14.01,2013-01-04 13:17:00,
2013-01-04 08:22:00,22.8,14.8,29.94,SW,225,0.0,0.0,71,0.00,,---,0.00,VWS V14.01,2013-01-04 13:22:00,
2013-01-04 08:27:00,22.8,14.8,29.94,SW,225,0.0,0.0,71,0.00,,---,0.00,VWS V14.01,2013-01-04 13:27:00,
2013-01-04 08:32:00,22.8,14.8,29.94,SW,225,0.0,0.0,71,0.00,,---,0.00,VWS V14.01,2013-01-04 13:32:00,
2013-01-04 08:37:00,22.6,14.7,29.94,SW,225,0.0,0.0,71,0.00,,---,0.00,VWS V14.01,2013-01-04 13:37:00,
2013-01-04 08:42:00,22.8,14.8,29.94,SW,225,0.0,0.0,71,0.00,,---,0.00,VWS V14.01,2013-01-04 13:42:00,
2013-01-04 08:47:00,22.8,14.8,29.94,SW,225,0.0,0.0,71,0.00,,---,0.00,VWS V14.01,2013-01-04 13:47:00,
2013-01-04 08:52:00,22.8,14.8,29.94,SW,225,0.0,0.0,71,0.00,,---,0.00,VWS V14.01,2013-01-04 13:52:00,
2013-01-04 08:57:00,22.8,14.8,29.94,SW,225,0.0,0.0,71,0.00,,---,0.00,VWS V14.01,2013-01-04 13:57:00,
2013-01-04 09:02:00,22.8,14.8,29.94,SW,225,0.0,0.0,71,0.00,,---,0.00,VWS V14.01,2013-01-04 14:02:00,
2013-01-04 09:07:00,22.8,14.8,29.94,SW,225,0.0,0.0,71,0.00,,---,0.00,VWS V14.01,2013-01-04 14:07:00,
2013-01-04 09:12:00,23.0,15.0,29.94,SW,225,0.0,0.0,71,0.00,,---,0.00,VWS V14.01,2013-01-04 14:12:00,
2013-01-04 09:17:00,23.2,14.9,29.94,SW,225,0.0,0.0,70,0.00,,---,0.00,VWS V14.01,2013-01-04 14:17:00,
2013-01-04 09:22:00,23.4,15.0,29.94,SW,225,0.0,0.0,70,0.00,,---,0.00,VWS V14.01,2013-01-04 14:22:00,
2013-01-04 09:27:00,23.5,15.2,29.94,SW,225,0.0,0.0,70,0.00,,---,0.00,VWS V14.01,2013-01-04 14:27:00,
2013-01-04 09:32:00,23.5,15.2,29.94,SW,225,0.0,0.0,70,0.00,,---,0.00,VWS V14.01,2013-01-04 14:32:00,
2013-01-04 09:37:00,24.1,15.4,29.94,SW,225,0.0,0.0,69,0.00,,---,0.00,VWS V14.01,2013-01-04 14:37:00,
2013-01-04 09:42:00,24.3,15.2,29.94,SW,225,0.0,0.0,68,0.00,,---,0.00,VWS V14.01,2013-01-04 14:42:00,
2013-01-04 09:47:00,24.8,15.8,29.94,SW,225,0.0,0.0,68,0.00,,---,0.00,VWS V14.01,2013-01-04 14:47:00,
2013-01-04 09:52:00,25.0,14.9,29.94,SW,225,0.0,0.0,65,0.00,,---,0.00,VWS V14.01,2013-01-04 14:52:00,
2013-01-04 09:57:00,24.8,14.7,29.94,SW,225,0.0,0.0,65,0.00,,---,0.00,VWS V14.01,2013-01-04 14:57:00,
2013-01-04 10:02:00,24.8,14.7,29.94,SW,225,0.0,0.0,65,0.00,,---,0.00,VWS V14.01,2013-01-04 15:02:00,
2013-01-04 10:07:00,24.6,14.6,29.94,SW,225,0.0,0.0,65,0.00,,---,0.00,VWS V14.01,2013-01-04 15:07:00,
2013-01-04 10:12:00,24.6,14.6,29.94,SW,225,0.0,0.0,65,0.00,,---,0.00,VWS V14.01,2013-01-04 15:12:00,
2013-01-04 10:17:00,24.6,14.6,29.94,SW,225,0.0,0.0,65,0.00,,---,0.00,VWS V14.01,2013-01-04 15:17:00,
2013-01-04 10:22:00,24.8,15.1,29.94,SW,225,0.0,0.0,66,0.00,,---,0.00,VWS V14.01,2013-01-04 15:22:00,
2013-01-04 10:27:00,24.8,14.7,29.94,SW,225,0.0,0.0,65,0.00,,---,0.00,VWS V14.01,2013-01-04 15:27:00,
2013-01-04 10:32:00,24.8,14.7,29.94,SW,225,0.0,0.0,65,0.00,,---,0.00,VWS V14.01,2013-01-04 15:32:00,
2013-01-04 10:37:00,25.0,14.9,29.94,SW,225,0.0,0.0,65,0.00,,---,0.00,VWS V14.01,2013-01-04 15:37:00,
2013-01-04 10:42:00,25.3,15.2,29.94,SW,225,0.0,0.0,65,0.00,,---,0.00,VWS V14.01,2013-01-04 15:42:00,
2013-01-04 10:47:00,25.5,15.4,29.94,SW,225,0.0,0.0,65,0.00,,---,0.00,VWS V14.01,2013-01-04 15:47:00,
2013-01-04 10:52:00,25.5,15.1,29.94,SW,225,0.0,0.0,64,0.00,,---,0.00,VWS V14.01,2013-01-04 15:52:00,
2013-01-04 10:57:00,25.5,14.7,29.94,SW,225,0.0,0.0,63,0.00,,---,0.00,VWS V14.01,2013-01-04 15:57:00,
2013-01-04 11:02:00,25.5,14.7,29.94,SW,225,0.0,0.0,63,0.00,,---,0.00,VWS V14.01,2013-01-04 16:02:00,
2013-01-04 11:07:00,25.7,15.2,29.94,SW,225,0.0,0.0,64,0.00,,---,0.00,VWS V14.01,2013-01-04 16:07:00,
2013-01-04 11:12:00,25.9,15.0,29.94,SW,225,0.0,0.0,63,0.00,,---,0.00,VWS V14.01,2013-01-04 16:12:00,
2013-01-04 11:17:00,26.2,15.4,29.94,SW,225,0.0,0.0,63,0.00,,---,0.00,VWS V14.01,2013-01-04 16:17:00,
2013-01-04 11:22:00,26.2,15.0,29.94,SW,225,0.0,0.0,62,0.00,,---,0.00,VWS V14.01,2013-01-04 16:22:00,
2013-01-04 11:27:00,26.2,14.6,29.94,SW,225,0.0,0.0,61,0.00,,---,0.00,VWS V14.01,2013-01-04 16:27:00,
2013-01-04 11:32:00,26.2,14.6,29.94,SW,225,0.0,0.0,61,0.00,,---,0.00,VWS V14.01,2013-01-04 16:32:00,
2013-01-04 11:37:00,27.3,15.7,29.97,SW,225,0.0,0.0,61,0.00,,---,0.00,VWS V14.01,2013-01-04 16:37:00,
2013-01-04 11:42:00,27.7,15.2,29.97,SW,225,0.0,0.0,59,0.00,,---,0.00,VWS V14.01,2013-01-04 16:42:00,
2013-01-04 11:47:00,28.2,15.8,29.97,SW,225,0.0,0.0,59,0.00,,---,0.00,VWS V14.01,2013-01-04 16:47:00,
2013-01-04 11:52:00,28.6,14.9,29.91,SW,225,0.0,0.0,56,0.00,,---,0.00,VWS V14.01,2013-01-04 16:52:00,
2013-01-04 11:57:00,29.1,15.0,29.91,SW,225,0.0,0.0,55,0.00,,---,0.00,VWS V14.01,2013-01-04 16:57:00,
2013-01-04 12:02:00,29.5,15.3,29.91,SW,225,0.0,0.0,55,0.00,,---,0.00,VWS V14.01,2013-01-04 17:02:00,
2013-01-04 12:07:00,30.6,15.9,29.94,SW,225,0.0,0.0,54,0.00,,---,0.00,VWS V14.01,2013-01-04 17:07:00,
2013-01-04 12:11:00,31.8,16.6,29.94,SW,225,0.0,0.0,53,0.00,,---,0.00,VWS V14.01,2013-01-04 17:11:00,
2013-01-04 12:16:00,31.8,16.6,29.94,SW,225,0.0,0.0,53,0.00,,---,0.00,VWS V14.01,2013-01-04 17:16:00,
2013-01-04 12:21:00,30.4,14.9,29.91,SW,225,0.0,0.0,52,0.00,,---,0.00,VWS V14.01,2013-01-04 17:21:00,
2013-01-04 12:26:00,29.3,13.9,29.91,SW,225,0.0,0.0,52,0.00,,---,0.00,VWS V14.01,2013-01-04 17:26:00,
2013-01-04 12:31:00,28.6,13.2,29.91,SW,225,0.0,0.0,52,0.00,,---,0.00,VWS V14.01,2013-01-04 17:31:00,
2013-01-04 12:36:00,28.6,13.6,29.88,SW,225,0.0,0.0,53,0.00,,---,0.00,VWS V14.01,2013-01-04 17:36:00,
2013-01-04 12:41:00,28.2,13.7,29.88,SW,225,0.0,0.0,54,0.00,,---,0.00,VWS V14.01,2013-01-04 17:41:00,
2013-01-04 12:46:00,28.0,14.0,29.88,SW,225,0.0,0.0,55,0.00,,---,0.00,VWS V14.01,2013-01-04 17:46:00,
2013-01-04 12:51:00,27.9,13.8,29.88,SW,225,0.0,0.0,55,0.00,,---,0.00,VWS V14.01,2013-01-04 17:51:00,
2013-01-04 12:56:00,27.9,13.8,29.88,SW,225,0.0,0.0,55,0.00,,---,0.00,VWS V14.01,2013-01-04 17:56:00,
2013-01-04 13:01:00,27.9,14.2,29.88,SW,225,0.0,0.0,56,0.00,,---,0.00,VWS V14.01,2013-01-04 18:01:00,
2013-01-04 13:06:00,27.9,14.2,29.88,SW,225,0.0,0.0,56,0.00,,---,0.00,VWS V14.01,2013-01-04 18:06:00,
2013-01-04 13:11:00,27.9,14.2,29.88,SW,225,0.0,0.0,56,0.00,,---,0.00,VWS V14.01,2013-01-04 18:11:00,
2013-01-04 13:16:00,27.9,14.2,29.88,SW,225,0.0,0.0,56,0.00,,---,0.00,VWS V14.01,2013-01-04 18:16:00,
2013-01-04 13:21:00,27.9,14.2,29.88,SW,225,0.0,0.0,56,0.00,,---,0.00,VWS V14.01,2013-01-04 18:21:00,
2013-01-04 13:26:00,28.0,14.4,29.88,SW,225,0.0,0.0,56,0.00,,---,0.00,VWS V14.01,2013-01-04 18:26:00,
2013-01-04 13:31:00,28.0,14.4,29.88,SW,225,0.0,0.0,56,0.00,,---,0.00,VWS V14.01,2013-01-04 18:31:00,
2013-01-04 13:36:00,28.0,14.4,29.85,SW,225,0.0,0.0,56,0.00,,---,0.00,VWS V14.01,2013-01-04 18:36:00,
2013-01-04 13:41:00,28.2,14.6,29.85,SW,225,0.0,0.0,56,0.00,,---,0.00,VWS V14.01,2013-01-04 18:41:00,
2013-01-04 13:46:00,28.4,14.7,29.85,SW,225,0.0,0.0,56,0.00,,---,0.00,VWS V14.01,2013-01-04 18:46:00,
2013-01-04 13:51:00,28.4,14.7,29.88,SW,225,0.0,0.0,56,0.00,,---,0.00,VWS V14.01,2013-01-04 18:51:00,
2013-01-04 13:56:00,28.4,14.3,29.88,SW,225,0.0,0.0,55,0.00,,---,0.00,VWS V14.01,2013-01-04 18:56:00,
2013-01-04 14:01:00,28.4,14.7,29.88,SW,225,0.0,0.0,56,0.00,,---,0.00,VWS V14.01,2013-01-04 19:01:00,
2013-01-04 14:06:00,28.4,14.7,29.88,SW,225,0.0,0.0,56,0.00,,---,0.00,VWS V14.01,2013-01-04 19:06:00,
2013-01-04 14:11:00,28.4,14.7,29.88,SW,225,0.0,0.0,56,0.00,,---,0.00,VWS V14.01,2013-01-04 19:11:00,
2013-01-04 14:16:00,28.6,14.9,29.88,SW,225,0.0,0.0,56,0.00,,---,0.00,VWS V14.01,2013-01-04 19:16:00,
2013-01-04 14:21:00,28.6,14.9,29.88,SW,225,0.0,0.0,56,0.00,,---,0.00,VWS V14.01,2013-01-04 19:21:00,
2013-01-04 14:26:00,28.8,14.6,29.88,SW,225,0.0,0.0,55,0.00,,---,0.00,VWS V14.01,2013-01-04 19:26:00,
2013-01-04 14:31:00,28.8,14.6,29.88,SW,225,0.0,0.0,55,0.00,,---,0.00,VWS V14.01,2013-01-04 19:31:00,
2013-01-04 14:36:00,28.8,14.6,29.85,SW,225,0.0,0.0,55,0.00,,---,0.00,VWS V14.01,2013-01-04 19:36:00,
2013-01-04 14:41:00,28.6,14.5,29.85,SW,225,0.0,0.0,55,0.00,,---,0.00,VWS V14.01,2013-01-04 19:41:00,
2013-01-04 14:46:00,28.8,14.6,29.85,SW,225,0.0,0.0,55,0.00,,---,0.00,VWS V14.01,2013-01-04 19:46:00,
2013-01-04 14:51:00,28.8,15.1,29.88,SW,225,0.0,0.0,56,0.00,,---,0.00,VWS V14.01,2013-01-04 19:51:00,
2013-01-04 14:56:00,28.8,14.6,29.88,SW,225,0.0,0.0,55,0.00,,---,0.00,VWS V14.01,2013-01-04 19:56:00,
2013-01-04 15:01:00,28.8,14.6,29.88,SW,225,0.0,0.0,55,0.00,,---,0.00,VWS V14.01,2013-01-04 20:01:00,
2013-01-04 15:06:00,28.8,14.6,29.88,SW,225,0.0,0.0,55,0.00,,---,0.00,VWS V14.01,2013-01-04 20:06:00,
2013-01-04 15:11:00,28.6,14.9,29.88,SW,225,0.0,0.0,56,0.00,,---,0.00,VWS V14.01,2013-01-04 20:11:00,
2013-01-04 15:16:00,28.6,14.9,29.88,SW,225,0.0,0.0,56,0.00,,---,0.00,VWS V14.01,2013-01-04 20:16:00,
2013-01-04 15:21:00,28.6,14.5,29.88,SW,225,0.0,0.0,55,0.00,,---,0.00,VWS V14.01,2013-01-04 20:21:00,
2013-01-04 15:26:00,28.6,14.5,29.88,SW,225,0.0,0.0,55,0.00,,---,0.00,VWS V14.01,2013-01-04 20:26:00,
2013-01-04 15:31:00,28.4,14.7,29.88,SW,225,0.0,0.0,56,0.00,,---,0.00,VWS V14.01,2013-01-04 20:31:00,
2013-01-04 15:36:00,28.2,14.6,29.88,SW,225,0.0,0.0,56,0.00,,---,0.00,VWS V14.01,2013-01-04 20:36:00,
2013-01-04 15:41:00,28.2,14.6,29.88,SW,225,0.0,0.0,56,0.00,,---,0.00,VWS V14.01,2013-01-04 20:41:00,
2013-01-04 15:46:00,28.0,14.4,29.88,SW,225,0.0,0.0,56,0.00,,---,0.00,VWS V14.01,2013-01-04 20:46:00,
2013-01-04 15:51:00,28.0,14.8,29.88,SW,225,0.0,0.0,57,0.00,,---,0.00,VWS V14.01,2013-01-04 20:51:00,
2013-01-04 15:56:00,27.9,14.2,29.88,SW,225,0.0,0.0,56,0.00,,---,0.00,VWS V14.01,2013-01-04 20:56:00,
2013-01-04 16:01:00,27.9,14.2,29.88,SW,225,0.0,0.0,56,0.00,,---,0.00,VWS V14.01,2013-01-04 21:01:00,
2013-01-04 16:06:00,27.9,14.2,29.88,SW,225,0.0,0.0,56,0.00,,---,0.00,VWS V14.01,2013-01-04 21:06:00,
2013-01-04 16:11:00,27.7,14.0,29.88,SW,225,0.0,0.0,56,0.00,,---,0.00,VWS V14.01,2013-01-04 21:11:00,
2013-01-04 16:16:00,27.5,13.9,29.88,SW,225,0.0,0.0,56,0.00,,---,0.00,VWS V14.01,2013-01-04 21:16:00,
2013-01-04 16:21:00,27.3,14.1,29.88,SW,225,0.0,0.0,57,0.00,,---,0.00,VWS V14.01,2013-01-04 21:21:00,
2013-01-04 16:26:00,27.1,13.9,29.88,SW,225,0.0,0.0,57,0.00,,---,0.00,VWS V14.01,2013-01-04 21:26:00,
2013-01-04 16:31:00,27.0,13.8,29.88,SW,225,0.0,0.0,57,0.00,,---,0.00,VWS V14.01,2013-01-04 21:31:00,
2013-01-04 16:36:00,27.0,14.2,29.88,SW,225,0.0,0.0,58,0.00,,---,0.00,VWS V14.01,2013-01-04 21:36:00,
2013-01-04 16:41:00,26.8,14.0,29.88,SW,225,0.0,0.0,58,0.00,,---,0.00,VWS V14.01,2013-01-04 21:41:00,
2013-01-04 16:46:00,26.6,14.2,29.88,SW,225,0.0,0.0,59,0.00,,---,0.00,VWS V14.01,2013-01-04 21:46:00,
2013-01-04 16:51:00,26.4,14.1,29.91,SW,225,0.0,0.0,59,0.00,,---,0.00,VWS V14.01,2013-01-04 21:51:00,
2013-01-04 16:56:00,26.2,13.9,29.91,SW,225,0.0,0.0,59,0.00,,---,0.00,VWS V14.01,2013-01-04 21:56:00,
2013-01-04 17:01:00,26.2,13.9,29.91,SW,225,0.0,0.0,59,0.00,,---,0.00,VWS V14.01,2013-01-04 22:01:00,
2013-01-04 17:06:00,26.1,14.1,29.91,SW,225,0.0,0.0,60,0.00,,---,0.00,VWS V14.01,2013-01-04 22:06:00,
2013-01-04 17:11:00,26.1,14.1,29.91,SW,225,0.0,0.0,60,0.00,,---,0.00,VWS V14.01,2013-01-04 22:11:00,
2013-01-04 17:16:00,25.7,13.8,29.91,SW,225,0.0,0.0,60,0.00,,---,0.00,VWS V14.01,2013-01-04 22:16:00,
2013-01-04 17:21:00,25.7,13.8,29.91,SW,225,0.0,0.0,60,0.00,,---,0.00,VWS V14.01,2013-01-04 22:21:00,
2013-01-04 17:26:00,25.3,13.4,29.91,SW,225,0.0,0.0,60,0.00,,---,0.00,VWS V14.01,2013-01-04 22:26:00,
2013-01-04 17:31:00,25.3,13.4,29.91,SW,225,0.0,0.0,60,0.00,,---,0.00,VWS V14.01,2013-01-04 22:31:00,
2013-01-04 17:36:00,25.2,13.2,29.94,SW,225,0.0,0.0,60,0.00,,---,0.00,VWS V14.01,2013-01-04 22:36:00,
2013-01-04 17:41:00,25.2,13.2,29.94,SW,225,0.0,0.0,60,0.00,,---,0.00,VWS V14.01,2013-01-04 22:41:00,
2013-01-04 17:46:00,24.8,13.3,29.94,SW,225,0.0,0.0,61,0.00,,---,0.00,VWS V14.01,2013-01-04 22:46:00,
2013-01-04 17:51:00,24.6,13.1,29.94,SW,225,0.0,0.0,61,0.00,,---,0.00,VWS V14.01,2013-01-04 22:51:00,
2013-01-04 17:56:00,24.6,13.5,29.94,SW,225,0.0,0.0,62,0.00,,---,0.00,VWS V14.01,2013-01-04 22:56:00,
2013-01-04 18:01:00,24.6,13.5,29.94,SW,225,0.0,0.0,62,0.00,,---,0.00,VWS V14.01,2013-01-04 23:01:00,
2013-01-04 18:06:00,24.4,13.3,29.94,SW,225,0.0,0.0,62,0.00,,---,0.00,VWS V14.01,2013-01-04 23:06:00,
2013-01-04 18:11:00,24.4,13.7,29.94,SW,225,0.0,0.0,63,0.00,,---,0.00,VWS V14.01,2013-01-04 23:11:00,
2013-01-04 18:16:00,24.4,13.7,29.94,SW,225,0.0,0.0,63,0.00,,---,0.00,VWS V14.01,2013-01-04 23:16:00,
2013-01-04 18:21:00,24.3,13.5,29.91,SW,225,0.0,0.0,63,0.00,,---,0.00,VWS V14.01,2013-01-04 23:21:00,
2013-01-04 18:26:00,24.1,13.3,29.91,SW,225,0.0,0.0,63,0.00,,---,0.00,VWS V14.01,2013-01-04 23:26:00,
2013-01-04 18:31:00,24.1,13.3,29.91,SW,225,0.0,0.0,63,0.00,,---,0.00,VWS V14.01,2013-01-04 23:31:00,
2013-01-04 18:36:00,24.1,13.3,29.94,SW,225,0.0,0.0,63,0.00,,---,0.00,VWS V14.01,2013-01-04 23:36:00,
2013-01-04 18:41:00,23.9,13.5,29.94,SW,225,0.0,0.0,64,0.00,,---,0.00,VWS V14.01,2013-01-04 23:41:00,
2013-01-04 18:46:00,23.9,13.5,29.94,SW,225,0.0,0.0,64,0.00,,---,0.00,VWS V14.01,2013-01-04 23:46:00,
2013-01-04 18:51:00,23.9,13.5,29.94,SW,225,0.0,0.0,64,0.00,,---,0.00,VWS V14.01,2013-01-04 23:51:00,
2013-01-04 18:56:00,23.9,13.5,29.94,SW,225,0.0,0.0,64,0.00,,---,0.00,VWS V14.01,2013-01-04 23:56:00,
2013-01-04 19:01:00,23.9,13.5,29.94,SW,225,0.0,0.0,64,0.00,,---,0.00,VWS V14.01,2013-01-05 00:01:00,
2013-01-04 19:06:00,23.7,13.7,29.94,SW,225,0.0,0.0,65,0.00,,---,0.00,VWS V14.01,2013-01-05 00:06:00,
2013-01-04 19:11:00,23.7,13.7,29.94,SW,225,0.0,0.0,65,0.00,,---,0.00,VWS V14.01,2013-01-05 00:11:00,
2013-01-04 19:16:00,23.5,13.5,29.94,SW,225,0.0,0.0,65,0.00,,---,0.00,VWS V14.01,2013-01-05 00:16:00,
2013-01-04 19:21:00,23.5,13.5,29.94,SW,225,0.0,0.0,65,0.00,,---,0.00,VWS V14.01,2013-01-05 00:21:00,
2013-01-04 19:26:00,23.5,13.5,29.94,SW,225,0.0,0.0,65,0.00,,---,0.00,VWS V14.01,2013-01-05 00:26:00,
2013-01-04 19:31:00,23.5,13.9,29.94,SW,225,0.0,0.0,66,0.00,,---,0.00,VWS V14.01,2013-01-05 00:31:00,
2013-01-04 19:36:00,23.5,13.9,29.97,SW,225,0.0,0.0,66,0.00,,---,0.00,VWS V14.01,2013-01-05 00:36:00,
2013-01-04 19:41:00,23.5,14.2,29.97,SW,225,0.0,0.0,67,0.00,,---,0.00,VWS V14.01,2013-01-05 00:41:00,
2013-01-04 19:46:00,23.5,14.2,29.97,SW,225,0.0,0.0,67,0.00,,---,0.00,VWS V14.01,2013-01-05 00:46:00,
2013-01-04 19:51:00,23.4,14.0,29.97,SW,225,0.0,0.0,67,0.00,,---,0.00,VWS V14.01,2013-01-05 00:51:00,
2013-01-04 19:56:00,23.4,13.7,29.97,SW,225,0.0,0.0,66,0.00,,---,0.00,VWS V14.01,2013-01-05 00:56:00,
2013-01-04 20:00:00,23.4,14.0,29.97,SW,225,0.0,0.0,67,0.00,,---,0.00,VWS V14.01,2013-01-05 01:00:00,
2013-01-04 20:05:00,23.4,14.4,29.97,SW,225,0.0,0.0,68,0.00,,---,0.00,VWS V14.01,2013-01-05 01:05:00,
2013-01-04 20:11:00,23.4,14.4,29.97,SW,225,0.0,0.0,68,0.00,,---,0.00,VWS V14.01,2013-01-05 01:11:00,
2013-01-04 20:15:00,23.4,14.0,29.97,SW,225,0.0,0.0,67,0.00,,---,0.00,VWS V14.01,2013-01-05 01:15:00,
2013-01-04 20:20:00,23.2,13.9,30.00,SW,225,0.0,0.0,67,0.00,,---,0.00,VWS V14.01,2013-01-05 01:20:00,
2013-01-04 20:25:00,23.2,14.2,30.00,SW,225,0.0,0.0,68,0.00,,---,0.00,VWS V14.01,2013-01-05 01:25:00,
2013-01-04 20:30:00,23.2,14.2,30.00,SW,225,0.0,0.0,68,0.00,,---,0.00,VWS V14.01,2013-01-05 01:30:00,
2013-01-04 20:35:00,23.2,14.2,30.00,SW,225,0.0,0.0,68,0.00,,---,0.00,VWS V14.01,2013-01-05 01:35:00,
2013-01-04 20:40:00,23.0,14.0,30.00,SW,225,0.0,0.0,68,0.00,,---,0.00,VWS V14.01,2013-01-05 01:40:00,
2013-01-04 20:45:00,23.0,14.4,30.00,SW,225,0.0,0.0,69,0.00,,---,0.00,VWS V14.01,2013-01-05 01:45:00,
2013-01-04 20:50:00,23.0,14.4,30.00,SW,225,0.0,0.0,69,0.00,,---,0.00,VWS V14.01,2013-01-05 01:50:00,
2013-01-04 20:55:00,22.8,14.2,30.00,SW,225,0.0,0.0,69,0.00,,---,0.00,VWS V14.01,2013-01-05 01:55:00,
2013-01-04 21:00:00,22.8,14.2,30.00,SW,225,0.0,0.0,69,0.00,,---,0.00,VWS V14.01,2013-01-05 02:00:00,
2013-01-04 21:05:00,22.8,14.2,30.00,SW,225,0.0,0.0,69,0.00,,---,0.00,VWS V14.01,2013-01-05 02:05:00,
2013-01-04 21:10:00,22.8,14.5,30.00,SW,225,0.0,0.0,70,0.00,,---,0.00,VWS V14.01,2013-01-05 02:10:00,
2013-01-04 21:15:00,22.8,14.5,30.00,SW,225,0.0,0.0,70,0.00,,---,0.00,VWS V14.01,2013-01-05 02:15:00,
2013-01-04 21:20:00,22.8,14.5,30.00,SW,225,0.0,0.0,70,0.00,,---,0.00,VWS V14.01,2013-01-05 02:20:00,
2013-01-04 21:25:00,22.6,14.0,30.00,SW,225,0.0,0.0,69,0.00,,---,0.00,VWS V14.01,2013-01-05 02:25:00,
2013-01-04 21:30:00,22.6,14.3,30.00,SW,225,0.0,0.0,70,0.00,,---,0.00,VWS V14.01,2013-01-05 02:30:00,
2013-01-04 21:35:00,22.5,14.2,30.00,SW,225,0.0,0.0,70,0.00,,---,0.00,VWS V14.01,2013-01-05 02:35:00,
2013-01-04 21:40:00,22.5,14.2,30.00,SW,225,0.0,0.0,70,0.00,,---,0.00,VWS V14.01,2013-01-05 02:40:00,
2013-01-04 21:45:00,22.3,14.0,30.00,SW,225,0.0,0.0,70,0.00,,---,0.00,VWS V14.01,2013-01-05 02:45:00,
2013-01-04 21:50:00,22.3,14.0,30.00,SW,225,0.0,0.0,70,0.00,,---,0.00,VWS V14.01,2013-01-05 02:50:00,
2013-01-04 21:55:00,22.3,14.3,30.00,SW,225,0.0,0.0,71,0.00,,---,0.00,VWS V14.01,2013-01-05 02:55:00,
2013-01-04 22:00:00,22.3,14.3,30.00,SW,225,0.0,0.0,71,0.00,,---,0.00,VWS V14.01,2013-01-05 03:00:00,
2013-01-04 22:05:00,22.3,14.3,30.00,SW,225,0.0,0.0,71,0.00,,---,0.00,VWS V14.01,2013-01-05 03:05:00,
2013-01-04 22:10:00,22.1,14.1,30.00,SW,225,0.0,0.0,71,0.00,,---,0.00,VWS V14.01,2013-01-05 03:10:00,
2013-01-04 22:15:00,21.9,14.0,30.00,SW,225,0.0,0.0,71,0.00,,---,0.00,VWS V14.01,2013-01-05 03:15:00,
2013-01-04 22:20:00,21.9,14.3,30.03,SW,225,0.0,0.0,72,0.00,,---,0.00,VWS V14.01,2013-01-05 03:20:00,
2013-01-04 22:25:00,21.9,14.3,30.03,SW,225,0.0,0.0,72,0.00,,---,0.00,VWS V14.01,2013-01-05 03:25:00,
2013-01-04 22:30:00,21.9,14.3,30.03,SW,225,0.0,0.0,72,0.00,,---,0.00,VWS V14.01,2013-01-05 03:30:00,
2013-01-04 22:35:00,21.9,14.3,30.03,SW,225,0.0,0.0,72,0.00,,---,0.00,VWS V14.01,2013-01-05 03:35:00,
2013-01-04 22:40:00,21.9,14.6,30.03,SW,225,0.0,0.0,73,0.00,,---,0.00,VWS V14.01,2013-01-05 03:40:00,
2013-01-04 22:45:00,21.9,14.6,30.03,SW,225,0.0,0.0,73,0.00,,---,0.00,VWS V14.01,2013-01-05 03:45:00,
2013-01-04 22:50:00,21.9,14.6,30.06,SW,225,0.0,0.0,73,0.00,,---,0.00,VWS V14.01,2013-01-05 03:50:00,
2013-01-04 22:55:00,21.7,14.4,30.06,SW,225,0.0,0.0,73,0.00,,---,0.00,VWS V14.01,2013-01-05 03:55:00,
2013-01-04 23:00:00,21.7,14.4,30.06,SW,225,0.0,0.0,73,0.00,,---,0.00,VWS V14.01,2013-01-05 04:00:00,
2013-01-04 23:05:00,21.6,14.3,30.03,SW,225,0.0,0.0,73,0.00,,---,0.00,VWS V14.01,2013-01-05 04:05:00,
2013-01-04 23:10:00,21.6,14.3,30.03,SW,225,0.0,0.0,73,0.00,,---,0.00,VWS V14.01,2013-01-05 04:10:00,
2013-01-04 23:15:00,21.4,14.1,30.03,SW,225,0.0,0.0,73,0.00,,---,0.00,VWS V14.01,2013-01-05 04:15:00,
2013-01-04 23:20:00,21.4,14.1,30.06,SW,225,0.0,0.0,73,0.00,,---,0.00,VWS V14.01,2013-01-05 04:20:00,
2013-01-04 23:25:00,21.2,14.2,30.06,SW,225,0.0,0.0,74,0.00,,---,0.00,VWS V14.01,2013-01-05 04:25:00,
2013-01-04 23:30:00,21.2,14.2,30.06,SW,225,0.0,0.0,74,0.00,,---,0.00,VWS V14.01,2013-01-05 04:30:00,
2013-01-04 23:35:00,21.2,14.2,30.06,SW,225,0.0,0.0,74,0.00,,---,0.00,VWS V14.01,2013-01-05 04:35:00,
2013-01-04 23:40:00,21.0,14.1,30.06,SW,225,0.0,0.0,74,0.00,,---,0.00,VWS V14.01,2013-01-05 04:40:00,
2013-01-04 23:45:00,20.8,13.9,30.06,SW,225,0.0,0.0,74,0.00,,---,0.00,VWS V14.01,2013-01-05 04:45:00,
2013-01-04 23:50:00,20.8,13.9,30.03,SW,225,0.0,0.0,74,0.00,,---,0.00,VWS V14.01,2013-01-05 04:50:00,
2013-01-04 23:55:00,20.7,14.0,30.03,SW,225,0.0,0.0,75,0.00,,---,0.00,VWS V14.01,2013-01-05 04:55:00,